Vagar, Faroe Islands

6:43 PM WEST on September 01, 2015 (GMT +0100)
Vagar | | Change Station
CLOSE
Current Station
Airport
Location: Vagar,
Elevation: 279 ft
Nearby Weather Stations

Elev 279 ft 62.07 °N, 7.28 °W | Updated 23 minutes ago

Overcast
Overcast
48 °F
Feels Like 48 °F
N
15
Wind Variable Wind from NNW

Today
High -- | Low -- °F
--% Chance of Precip.
Yesterday
High -- | Low -- °F
Precip. -- in
6:17 AM 8:39 PM
Waning Gibbous, 87% visible
Pressure 30.27 in
Visibility 6.2 miles
Clouds Overcast 2500 ft
Dew Point 39 °F
Humidity 71%
Rainfall 0.00 in
Snow Depth Not available.
UV 0 out of 12
Pollen Not available.
Air Quality Not available.
Flu Activity Not available.
METAR EKVG 011720Z AUTO 34013KT 9999NDV OVC025/// 09/04 Q1025 RMK BKN022/// WIND 850FT 36017G29KT 320V030
Pressure 30.27 in
Visibility 6.2 miles
Clouds Overcast 2500 ft
Dew Point 39 °F
Humidity 71%
Rainfall 0.00 in
Snow Depth Not available.
UV 0 out of 12
Pollen Not available.
Air Quality Not available.
Flu Activity Not available.
METAR EKVG 011720Z AUTO 34013KT 9999NDV OVC025/// 09/04 Q1025 RMK BKN022/// WIND 850FT 36017G29KT 320V030

10-Day Weather Forecast

×

Almanac

Astronomy

Sep. 01, 2015 Rise Set
Actual Time
Civil Twilight
Nautical Twilight
Astronomical Twilight
Moon
Length of Visible Light
Length of Day
Tomorrow will be .
, % of the Moon is Illuminated

Today's Extremes

Country Highs Country Lows

Community

WunderPhotos

Upload Photos

1,851,569 photos uploaded!

WunderBlogs® & News

Nearby

Air Quality

  Air Quality AQ Index Pollutant
Not available.

Snow Depth

Station Depth Elevation

Earthquake Activity

City Distance Mag. Time & Date
Minimum magnitude displayed is 2.5.

Coastal Water Temperatures

Place Temperature

Stations

Nearby Weather Stations

Station Location Temp. Windchill Dew Point Humidity Wind Precip. Elev Updated Type